Back to catalog

STARLINK-38143

AliveCommunicationsSSO
NORAD 100317·PAYLOAD·🇺🇸 United States

Launched Aug 12, 2026 from Vandenberg Space Force Base

Loading…

Next Passes (next 24 hours)

TLE

FreshSource: Space-Track

Epoch: Sep 14, 2026, 15:21 UTC

1 A0317U 26184S   26257.64012888 -.00001560  00000-0 -45970-4 0  9994
2 A0317  97.2835 122.8627 0001798  89.3491 270.7958 15.33465529  6461

Track STARLINK-38143 in real time with AllMySat

Download on the App Store